[[{"header":{"parameterUnit":"m.s-1","parameterCategory":1,"la1":30.2991,"la2":30.254,"lo1":-89.0895,"lo2":-89.0444,"dy":0.0017,"dx":0.0017,"nx":28,"ny":28,"refTime":"2023-09-12T09:00:00:Z","depth":0,"parameterNumber":2,"parameterNumberName":"U-component_of_WINDS"},"data":[0,0,0,0,0,0,0,0,0,0,0,0,0,0,0,0,0,0,0,0,0,0,0,0,0,0,0,0,0,0,0,0,0,0,0,0,0,0,0,0,0,0,0,0,0,0,0,0,0,0,0,0,0,0,0,0,0,0,3.3063,3.3065,0,3.3252,3.3254,3.3256,3.3321,3.332,3.332,3.3319,3.3516,3.3522,3.3528,0,0,0,0,0,0,0,0,0,0,0,0,0,3.2761,3.2767,3.3062,3.3065,3.3067,3.3252,3.3254,3.3257,3.3321,3.332,3.3319,3.3319,3.3514,3.3521,3.3529,0,0,0,0,0,0,0,0,0,0,0,0,0,3.2916,3.2768,3.3062,3.3121,3.3129,3.3251,3.3254,3.3257,3.3321,3.332,3.3319,3.3318,3.3512,3.3521,3.353,3.3608,0,0,3.3557,3.3561,0,0,0,0,0,0,0,0,3.2907,3.2927,3.311,3.3118,3.3126,3.3262,3.3221,3.3375,3.3322,3.3248,3.3319,3.3318,3.3433,3.3448,3.3486,3.3617,3.3625,3.3558,3.3563,3.3567,3.357,0,0,0,0,0,0,0,3.2896,3.2919,3.3138,3.3113,3.3123,3.314,3.3161,3.325,3.3345,3.3255,3.326,3.3281,3.3437,3.3478,3.3491,3.3628,3.3558,3.3565,3.3571,3.3574,3.3835,3.3837,0,0,0,0,0,0,3.2875,3.2909,3.3131,3.3143,3.3011,3.3147,3.317,3.3219,3.3344,3.3362,3.3282,3.3284,3.3463,3.3481,3.3499,3.36,3.3567,3.3575,3.358,3.3833,3.3835,3.3837,0,0,0,0,0,0,3.2868,3.2894,3.3124,3.3028,3.3058,3.3153,3.3208,3.3224,3.3264,3.3365,3.3382,3.3306,3.3463,3.3486,3.358,3.3607,3.3579,3.3588,3.3832,3.3834,3.3836,3.3801,0,0,0,0,0,0,3.2859,3.2891,3.292,3.3028,3.3063,3.3201,3.321,3.3228,3.3279,3.3283,3.3392,3.3409,3.3464,3.3567,3.3589,3.3619,3.3594,3.383,3.3833,3.3835,3.38,3.3801,3.3803,0,0,0,0,0,3.2848,3.2903,3.2921,3.2948,3.3102,3.3202,3.3222,3.3283,3.3281,3.3312,3.3377,3.3405,3.3601,3.3576,3.3602,3.3635,3.3828,3.3832,3.3835,3.3799,3.3801,3.3803,0,0,0,0,0,0,3.2797,3.2918,3.294,3.3031,3.3106,3.3213,3.3254,3.3283,3.3361,3.3361,3.3435,3.346,3.3548,3.3601,3.3571,3.3718,3.3716,3.3725,3.368,3.3683,3.3684,3.3669,3.3602,0,0,0,0,0,3.2796,3.2866,3.2969,3.304,3.3076,3.3158,3.3204,3.3245,3.3326,3.3358,3.3429,3.3508,3.3587,3.3638,3.3716,3.3808,3.3834,3.3844,3.3845,3.3846,3.3853,3.3907,3.3913,3.3849,3.3849,3.3848,0,0,3.2795,3.287,3.291,3.3031,3.3094,3.3166,3.3184,3.326,3.3315,3.337,3.3463,3.3518,3.3611,3.3705,3.375,3.3752,3.3877,3.385,3.385,3.3857,3.3911,3.3917,3.3923,3.3851,3.385,3.385,0,0,3.2831,3.2894,3.296,3.3023,3.3117,3.3172,3.3188,3.3291,3.333,3.3425,3.3468,3.3536,3.367,3.3735,3.3785,3.3848,3.3877,3.3871,3.3879,3.3931,3.3936,3.3941,3.3964,3.3972,3.3878,3.3878,3.3878,0,3.2818,3.2928,3.2991,3.3065,3.3118,3.317,3.3239,3.3297,3.3413,3.3449,3.3449,3.362,3.3687,3.3797,3.3812,3.3851,3.3873,3.3859,3.393,3.3936,3.3941,3.3964,3.3973,3.3877,3.3877,3.3877,3.3877,0,3.2908,3.2984,3.3026,3.3136,3.3194,3.3264,3.334,3.3392,3.3428,3.3483,3.358,3.3662,3.3758,3.3787,3.3824,3.3904,3.3902,3.3915,3.3915,3.3945,3.3968,3.3977,3.3875,3.3875,3.3876,3.3876,0,0,3.2915,3.306,3.3075,3.3126,3.3235,3.3295,3.337,3.3463,3.3506,3.3585,3.365,3.3764,3.3777,3.3835,3.3879,3.3925,3.3971,3.3933,3.3937,3.3938,3.4066,3.4055,3.4064,3.3991,3.3993,3.3995,3.4058,0,3.2966,3.3099,3.3159,3.3266,3.3338,3.339,3.3455,3.353,3.3584,3.3654,3.3715,3.3795,3.3806,3.3841,3.3889,3.3955,3.3997,3.3951,3.4054,3.4057,3.4029,3.4076,3.4064,3.412,3.4067,3.4069,3.407,0,3.3042,3.312,3.3233,3.3335,3.3368,3.3425,3.3517,3.3582,3.3669,3.3706,3.377,3.3813,3.3896,3.389,3.4005,3.3972,3.4019,3.4058,3.4062,3.4073,3.4065,3.4089,3.4139,3.4148,3.4085,3.4083,3.4082,0,3.3037,3.317,3.3256,3.3298,3.3419,3.3458,3.3511,3.3596,3.3649,3.373,3.3766,3.3855,3.3905,3.3974,3.4041,3.403,3.415,3.415,3.4184,3.4183,3.4207,3.4204,3.4265,3.4236,3.4236,3.4236,3.4235,0,3.3086,3.3154,3.3256,3.3308,3.3387,3.3456,3.3533,3.3589,3.3665,3.3731,3.3783,3.3844,3.3928,3.4001,3.4054,3.4142,3.4164,3.4197,3.421,3.4193,3.4188,3.4224,3.4222,3.4238,3.4237,3.4237,3.4237,0,3.3093,3.3164,3.3261,3.3368,3.3396,3.3449,3.3542,3.3596,3.3653,3.3736,3.376,3.385,3.3939,3.4012,3.4128,3.4164,3.4256,3.4272,3.4226,3.4233,3.4264,3.426,3.4349,3.4365,3.4324,3.4325,3.4325,0,3.312,3.3174,3.3286,3.3334,3.3385,3.3461,3.3516,3.3587,3.3642,3.3746,3.3788,3.388,3.3957,3.4096,3.4173,3.4263,3.4281,3.4307,3.4295,3.4276,3.4283,3.4279,3.4285,3.4307,3.4307,3.4307,3.4307,0,3.3161,3.3194,3.327,3.3358,3.3422,3.3495,3.357,3.3606,3.3692,3.3752,3.3842,3.3902,3.4021,3.4112,3.421,3.4266,3.4302,3.4311,3.4323,3.4306,3.4277,3.4294,3.4229,3.4308,3.4308,3.4308,3.4308,3.4308,3.318,3.3231,3.3318,3.3401,3.3465,3.3534,3.3591,3.3655,3.3731,3.3832,3.3871,3.3964,3.4052,3.4187,3.4244,3.4319,3.4323,3.4342,3.4346,3.435,3.4348,3.4265,3.4337,3.4337,3.4337,3.4337,3.4337,0,3.3224,3.3283,3.3359,3.3462,3.3528,3.3555,3.364,3.3694,3.3774,3.3853,3.3928,3.4033,3.4122,3.4206,3.43,3.4344,3.4363,3.4366,3.4364,3.4376,3.4338,3.4318,3.4349,3.4349,3.4349,3.4349,3.4349,3.4349,3.3255,3.3342,3.3385,3.3505,3.3565,3.3655,3.3701,3.3766,3.3829,3.3943,3.4017,3.4071,3.4153,3.4254,3.4337,3.436,3.4393,3.4392,3.4419,3.4381,3.4379,3.4377,3.4358,3.4398,3.4398,3.4451,3.4452,3.4452]},{"header":{"parameterUnit":"m.s-1","parameterCategory":1,"la1":30.2991,"la2":30.254,"lo1":-89.0895,"lo2":-89.0444,"dy":0.0017,"dx":0.0017,"nx":28,"ny":28,"refTime":"2023-09-12T09:00:00:Z","depth":0,"parameterNumber":3,"parameterNumberName":"V-component_of_WINDS"},"data":[0,0,0,0,0,0,0,0,0,0,0,0,0,0,0,0,0,0,0,0,0,0,0,0,0,0,0,0,0,0,0,0,0,0,0,0,0,0,0,0,0,0,0,0,0,0,0,0,0,0,0,0,0,0,0,0,0,0,-1.0096,-1.0095,0,-1.0005,-1.0004,-1.0003,-0.9978,-0.9978,-0.9979,-0.9979,-0.9882,-0.9879,-0.9876,0,0,0,0,0,0,0,0,0,0,0,0,0,-1.0241,-1.0239,-1.0096,-1.0095,-1.0093,-1.0005,-1.0004,-1.0003,-0.9978,-0.9978,-0.9979,-0.998,-0.9883,-0.9879,-0.9876,0,0,0,0,0,0,0,0,0,0,0,0,0,-1.0167,-1.0238,-1.0096,-1.007,-1.0067,-1.0005,-1.0004,-1.0002,-0.9978,-0.9978,-0.9979,-0.998,-0.9884,-0.988,-0.9875,-0.9831,0,0,-0.9861,-0.9859,0,0,0,0,0,0,0,0,-1.0171,-1.0162,-1.0075,-1.0072,-1.0068,-1.0004,-1.002,-0.9945,-0.9977,-1.0012,-0.9979,-0.998,-0.9921,-0.9914,-0.9895,-0.9826,-0.9822,-0.986,-0.9858,-0.9856,-0.9854,0,0,0,0,0,0,0,-1.0177,-1.0166,-1.006,-1.0074,-1.007,-1.0062,-1.0052,-1.0005,-0.9963,-1.0009,-1.0007,-0.9997,-0.992,-0.9899,-0.9892,-0.982,-0.9861,-0.9856,-0.9854,-0.9852,-0.9708,-0.9707,0,0,0,0,0,0,-1.0187,-1.017,-1.0063,-1.0057,-1.0123,-1.0059,-1.0048,-1.0024,-0.9963,-0.9955,-0.9996,-0.9996,-0.9907,-0.9898,-0.9889,-0.9832,-0.9856,-0.9851,-0.9849,-0.9709,-0.9708,-0.9707,0,0,0,0,0,0,-1.019,-1.0177,-1.0066,-1.0113,-1.0098,-1.0055,-1.0028,-1.0021,-1.0001,-0.9954,-0.9946,-0.9983,-0.9907,-0.9895,-0.9845,-0.9828,-0.9849,-0.9845,-0.971,-0.9709,-0.9707,-0.9718,0,0,0,0,0,0,-1.0194,-1.0179,-1.0163,-1.0113,-1.0096,-1.0026,-1.0027,-1.0019,-0.9994,-0.9993,-0.994,-0.9932,-0.9907,-0.9852,-0.9841,-0.9822,-0.9841,-0.9711,-0.9709,-0.9708,-0.9719,-0.9717,-0.9715,0,0,0,0,0,-1.02,-1.0169,-1.0162,-1.0149,-1.0075,-1.0025,-1.0015,-0.9988,-0.9993,-0.9975,-0.9944,-0.9934,-0.9832,-0.9847,-0.9834,-0.9814,-0.9712,-0.971,-0.9708,-0.9719,-0.9717,-0.9715,0,0,0,0,0,0,-1.0217,-1.0162,-1.0154,-1.0106,-1.0071,-1.0021,-0.9998,-0.9987,-0.9948,-0.9948,-0.9915,-0.9903,-0.9855,-0.9829,-0.9847,-0.9766,-0.9772,-0.9767,-0.9785,-0.9782,-0.9781,-0.9787,-0.9838,0,0,0,0,0,-1.0215,-1.0181,-1.0134,-1.0096,-1.0079,-1.0042,-1.0019,-1.0001,-0.9962,-0.9946,-0.9912,-0.9873,-0.9832,-0.9806,-0.9766,-0.9715,-0.9702,-0.9694,-0.9692,-0.9691,-0.9686,-0.9656,-0.9651,-0.9699,-0.9699,-0.9699,0,0,-1.0211,-1.0177,-1.0157,-1.0099,-1.0069,-1.0032,-1.0029,-0.999,-0.9962,-0.994,-0.9891,-0.9864,-0.9818,-0.9767,-0.9742,-0.9744,-0.967,-0.9688,-0.9687,-0.9683,-0.9653,-0.9648,-0.9644,-0.9697,-0.9698,-0.9698,0,0,-1.0185,-1.0156,-1.0122,-1.0092,-1.0047,-1.0022,-1.0014,-0.9965,-0.9947,-0.9897,-0.988,-0.9844,-0.9775,-0.9743,-0.9717,-0.9677,-0.9665,-0.9665,-0.9655,-0.9625,-0.9621,-0.9618,-0.9602,-0.9597,-0.9661,-0.9661,-0.9661,0,-1.0186,-1.0131,-1.0104,-1.0067,-1.0041,-1.002,-0.9983,-0.9955,-0.9899,-0.988,-0.9883,-0.9795,-0.9762,-0.9702,-0.9693,-0.9673,-0.9661,-0.967,-0.9624,-0.9621,-0.9617,-0.9602,-0.9596,-0.9661,-0.9661,-0.9661,-0.9661,0,-1.0133,-1.0095,-1.0072,-1.0019,-0.9991,-0.9953,-0.9919,-0.9893,-0.9877,-0.9852,-0.98,-0.976,-0.9711,-0.9696,-0.968,-0.9633,-0.9635,-0.9631,-0.9636,-0.9613,-0.9598,-0.9592,-0.9661,-0.9661,-0.9661,-0.9661,0,0,-1.0116,-1.0049,-1.0041,-1.0016,-0.9964,-0.9934,-0.9894,-0.9847,-0.9825,-0.9786,-0.9751,-0.9692,-0.9688,-0.9659,-0.9639,-0.9613,-0.9582,-0.9613,-0.9611,-0.9607,-0.9526,-0.9529,-0.9523,-0.9574,-0.9573,-0.9572,-0.953,0,-1.0083,-1.0014,-0.9988,-0.9931,-0.9894,-0.9874,-0.9839,-0.9802,-0.9777,-0.974,-0.9711,-0.967,-0.9669,-0.9651,-0.9624,-0.9592,-0.9565,-0.9595,-0.9539,-0.9537,-0.9551,-0.9515,-0.9518,-0.948,-0.9524,-0.9523,-0.9522,0,-1.0035,-0.9997,-0.9937,-0.9889,-0.9872,-0.9842,-0.9796,-0.9762,-0.9719,-0.9702,-0.967,-0.9651,-0.9606,-0.9614,-0.9551,-0.9572,-0.9547,-0.9527,-0.9525,-0.9519,-0.9528,-0.9506,-0.9467,-0.9462,-0.9513,-0.9513,-0.9514,0,-1.0028,-0.9961,-0.9916,-0.9896,-0.9839,-0.9818,-0.9792,-0.975,-0.9723,-0.9682,-0.9664,-0.9618,-0.9593,-0.9556,-0.9525,-0.9533,-0.9464,-0.9469,-0.9447,-0.9448,-0.9433,-0.9434,-0.9389,-0.9418,-0.9419,-0.9419,-0.9419,0,-0.9993,-0.9957,-0.9912,-0.9884,-0.9842,-0.9812,-0.977,-0.9743,-0.9705,-0.967,-0.9649,-0.9616,-0.9577,-0.9538,-0.9513,-0.9463,-0.9452,-0.9436,-0.9429,-0.9437,-0.9439,-0.942,-0.9422,-0.9417,-0.9417,-0.9418,-0.9418,0,-0.9978,-0.9947,-0.9896,-0.9846,-0.9833,-0.9804,-0.976,-0.973,-0.9704,-0.9659,-0.9647,-0.9604,-0.9557,-0.9522,-0.9461,-0.9444,-0.9391,-0.9385,-0.9406,-0.9403,-0.9382,-0.9384,-0.9323,-0.9312,-0.935,-0.9349,-0.9349,0,-0.9958,-0.993,-0.9877,-0.9853,-0.9828,-0.9789,-0.9761,-0.9729,-0.9701,-0.9649,-0.9626,-0.9578,-0.9538,-0.9463,-0.9425,-0.9378,-0.937,-0.9351,-0.9362,-0.9371,-0.9368,-0.937,-0.9366,-0.935,-0.9349,-0.9349,-0.9349,0,-0.9926,-0.9912,-0.9874,-0.983,-0.9798,-0.9761,-0.9724,-0.9704,-0.9665,-0.9634,-0.9587,-0.9556,-0.9493,-0.9445,-0.9394,-0.9365,-0.935,-0.9346,-0.9338,-0.9346,-0.9359,-0.935,-0.9401,-0.9347,-0.9348,-0.9348,-0.9348,-0.9348,-0.9907,-0.988,-0.9839,-0.9796,-0.9765,-0.9731,-0.9701,-0.967,-0.9631,-0.9579,-0.9561,-0.9512,-0.9467,-0.9397,-0.9367,-0.9326,-0.9326,-0.9315,-0.9312,-0.931,-0.931,-0.9366,-0.9317,-0.9317,-0.9317,-0.9317,-0.9317,0,-0.9873,-0.9845,-0.9806,-0.9755,-0.9721,-0.9711,-0.9669,-0.9641,-0.9598,-0.9559,-0.952,-0.9464,-0.9417,-0.9375,-0.9325,-0.93,-0.9291,-0.9288,-0.9289,-0.9282,-0.9313,-0.9325,-0.9295,-0.9295,-0.9295,-0.9295,-0.9295,-0.9295,-0.9851,-0.9805,-0.9785,-0.9722,-0.9694,-0.9647,-0.9623,-0.959,-0.9558,-0.9498,-0.9459,-0.9432,-0.9391,-0.9337,-0.9292,-0.9281,-0.9263,-0.9261,-0.9248,-0.9278,-0.928,-0.9283,-0.9293,-0.9258,-0.9258,-0.922,-0.9219,-0.9219]}]]